Location: Ponte Samoggia
(44.5667°N, 11.1333°E)
Time: 17:18:34
(UTC+00:00)

Meteor 1-28 Rocket - Pass Details

Date: 26 May 2022
Orbit: 500 x 518 km, 97.4° (Epoch: 07 July)

Event Time Altitude Azimuth Distance (km) Brightness Sun altitude
Exits shadow 02:04:15 23° 208° (SSW) 1,135 4.3 -13.5°
Maximum altitude 02:06:06 38° 262° (W) 795 3.8 -13.3°
Drops below altitude 10° 02:09:37 10° 332° (NNW) 1,737 6.1 -12.9°
Sets 02:11:49 0° 340° (NNW) 2,624 7.2 -12.6°
